Location: Anglesey
(53.1800°N, 4.2200°W)
Time: 09:59:48
(UTC+01:00)

ISS - Pass Details

Date: 10 October 2017
Orbit: 401 x 408 km, 51.6° (Epoch: 20 October)

Event Time Altitude Azimuth Distance (km) Brightness Sun altitude
Rises 20:02:36 0° 279° (W) 2,328 2.0 -14.3°
Reaches altitude 10° 20:04:48 10° 270° (W) 1,467 0.4 -14.7°
Maximum altitude 20:07:47 33° 204° (SSW) 713 -2.5 -15.1°
Enters shadow 20:09:24 20° 154° (SSE) 997 -2.2 -15.4°
